[[{"header":{"parameterUnit":"m.s-1","parameterCategory":1,"la1":30.2991,"la2":30.254,"lo1":-89.0895,"lo2":-89.0444,"dy":0.0017,"dx":0.0017,"nx":28,"ny":28,"refTime":"2024-04-24T03:00:00:Z","depth":0,"parameterNumber":2,"parameterNumberName":"U-component_of_WINDS"},"data":[0,0,0,0,0,0,0,0,0,0,0,0,0,0,0,0,0,0,0,0,0,0,0,0,0,0,0,0,0,0,0,0,0,0,0,0,0,0,0,0,0,0,0,0,0,0,0,0,0,0,0,0,0,0,0,0,0,0,1.772,1.7721,0,1.7779,1.778,1.7781,1.7772,1.7771,1.777,1.7769,1.7829,1.7831,1.7834,0,0,0,0,0,0,0,0,0,0,0,0,0,1.7598,1.76,1.772,1.7721,1.7722,1.7779,1.778,1.7781,1.7772,1.7771,1.777,1.7768,1.7828,1.7831,1.7834,0,0,0,0,0,0,0,0,0,0,0,0,0,1.7653,1.7601,1.772,1.7724,1.7725,1.7779,1.778,1.7781,1.7772,1.7771,1.7769,1.7768,1.7827,1.7831,1.7834,1.7888,0,0,1.7846,1.7848,0,0,0,0,0,0,0,0,1.765,1.7658,1.7723,1.7724,1.7725,1.7767,1.7759,1.7817,1.7773,1.7754,1.7769,1.7767,1.7809,1.7814,1.7829,1.789,1.7893,1.7846,1.7849,1.785,1.7851,0,0,0,0,0,0,0,1.7646,1.7655,1.7744,1.7724,1.7725,1.7723,1.7729,1.777,1.7789,1.7756,1.7755,1.7762,1.781,1.7825,1.783,1.7894,1.7846,1.7849,1.7852,1.7853,1.8,1.8002,0,0,0,0,0,0,1.7642,1.7652,1.7742,1.7745,1.7683,1.7726,1.7733,1.7755,1.7789,1.7793,1.7764,1.7762,1.7819,1.7826,1.7832,1.7895,1.785,1.7854,1.7856,1.7999,1.8001,1.8003,0,0,0,0,0,0,1.7639,1.765,1.7739,1.7699,1.771,1.773,1.7754,1.7757,1.7772,1.7795,1.7798,1.7776,1.7818,1.7827,1.7874,1.7897,1.7855,1.7859,1.7997,1.7999,1.8002,1.8023,0,0,0,0,0,0,1.7636,1.7649,1.767,1.7699,1.7712,1.778,1.7756,1.7759,1.7779,1.7777,1.7807,1.7811,1.7818,1.7868,1.7877,1.7902,1.7862,1.7995,1.7998,1.8001,1.802,1.8026,1.8031,0,0,0,0,0,1.7631,1.7674,1.7671,1.7682,1.7739,1.7782,1.7789,1.7796,1.7781,1.7802,1.7816,1.781,1.7894,1.7873,1.7883,1.7909,1.7993,1.7997,1.8001,1.8018,1.8025,1.8031,0,0,0,0,0,0,1.7646,1.7678,1.7675,1.7728,1.7752,1.778,1.7806,1.7804,1.7832,1.7829,1.7837,1.7844,1.7891,1.7905,1.7881,1.7962,1.7941,1.7947,1.7951,1.7957,1.7963,1.7958,1.7865,0,0,0,0,0,1.7656,1.7689,1.7714,1.7759,1.7771,1.7787,1.7806,1.7809,1.7834,1.7844,1.7862,1.7887,1.7918,1.7939,1.7969,1.8023,1.8028,1.8046,1.8051,1.8055,1.806,1.8087,1.8095,1.8015,1.8015,1.8015,0,0,1.7676,1.7697,1.7717,1.7762,1.7781,1.7814,1.7795,1.7831,1.7855,1.785,1.7895,1.7909,1.7936,1.7986,1.8009,1.7999,1.8083,1.806,1.8063,1.8065,1.8092,1.8099,1.8106,1.8017,1.8017,1.8016,0,0,1.7729,1.7749,1.7787,1.7807,1.7836,1.7846,1.7855,1.7883,1.7892,1.7937,1.7933,1.7962,1.8017,1.8036,1.8053,1.8113,1.8108,1.8122,1.8149,1.8176,1.8182,1.8188,1.8207,1.8214,1.8127,1.8127,1.8127,0,1.7749,1.7799,1.7807,1.7843,1.7862,1.7859,1.7897,1.7916,1.7953,1.7966,1.7955,1.8023,1.8041,1.8095,1.8109,1.8124,1.8133,1.8118,1.8181,1.8187,1.8192,1.821,1.8218,1.8129,1.8129,1.8128,1.8128,0,1.7823,1.7857,1.7885,1.7921,1.7943,1.7981,1.7993,1.8015,1.8016,1.8027,1.8073,1.8095,1.8129,1.8142,1.8144,1.8196,1.8188,1.8179,1.8158,1.8201,1.8218,1.8226,1.8131,1.813,1.813,1.813,0,0,1.7886,1.7926,1.7935,1.7951,1.7983,1.8009,1.8046,1.8079,1.8097,1.8123,1.8153,1.8199,1.819,1.8209,1.8214,1.8237,1.8281,1.8225,1.8226,1.8233,1.8337,1.8342,1.8351,1.8278,1.828,1.8281,1.8334,0,1.7941,1.8005,1.8013,1.807,1.8101,1.8098,1.813,1.8152,1.8163,1.8191,1.8203,1.8235,1.8222,1.8233,1.8257,1.827,1.8301,1.8267,1.8305,1.8306,1.8296,1.836,1.8366,1.8415,1.8341,1.8342,1.8343,0,1.8013,1.804,1.8101,1.8127,1.814,1.8168,1.8199,1.8226,1.8251,1.8257,1.8278,1.8279,1.8316,1.8295,1.8344,1.8321,1.8337,1.8346,1.8348,1.835,1.8326,1.8363,1.8431,1.8438,1.8354,1.8353,1.8353,0,1.8051,1.8103,1.8145,1.8159,1.8191,1.8211,1.8225,1.8249,1.8268,1.8295,1.8307,1.8338,1.8354,1.8378,1.8386,1.837,1.8435,1.8415,1.844,1.844,1.8453,1.8452,1.8523,1.8466,1.8466,1.8466,1.8466,0,1.811,1.8146,1.8163,1.8189,1.8229,1.8237,1.8277,1.829,1.8311,1.8339,1.8339,1.8365,1.8375,1.8403,1.841,1.8449,1.8457,1.8463,1.8464,1.8462,1.8461,1.8471,1.8467,1.8468,1.8467,1.8467,1.8467,0,1.8158,1.8171,1.8217,1.8243,1.8251,1.8279,1.8302,1.8326,1.8337,1.8372,1.8381,1.8398,1.843,1.8441,1.8481,1.8485,1.853,1.853,1.8522,1.8522,1.8546,1.8543,1.8625,1.8636,1.8573,1.8574,1.8574,0,1.8194,1.8222,1.8252,1.827,1.8285,1.8316,1.8335,1.8344,1.8364,1.8394,1.8415,1.8447,1.8473,1.8524,1.854,1.8569,1.8568,1.8595,1.8572,1.8569,1.8566,1.8564,1.8566,1.8599,1.8599,1.86,1.86,0,1.8256,1.8261,1.8289,1.832,1.8343,1.8367,1.839,1.8405,1.8418,1.844,1.8473,1.8493,1.8533,1.8564,1.8595,1.8608,1.8606,1.8607,1.8615,1.8612,1.8605,1.8607,1.8531,1.8605,1.8605,1.8604,1.8604,1.8604,1.8299,1.8323,1.8347,1.8378,1.8397,1.8418,1.8442,1.8456,1.8484,1.8516,1.852,1.8555,1.8578,1.8619,1.8634,1.8661,1.8653,1.8664,1.8667,1.8669,1.8669,1.8603,1.8667,1.8667,1.8667,1.8666,1.8666,0,1.8359,1.8375,1.8403,1.8436,1.846,1.8456,1.8481,1.8502,1.8532,1.8554,1.858,1.8617,1.8647,1.8665,1.8695,1.8713,1.8712,1.872,1.8718,1.8721,1.8675,1.8665,1.872,1.872,1.872,1.872,1.872,1.872,1.8393,1.8433,1.8441,1.849,1.8505,1.8539,1.8553,1.8573,1.859,1.8632,1.8657,1.8668,1.8688,1.8719,1.8746,1.8751,1.8761,1.8769,1.8773,1.873,1.8724,1.8719,1.8709,1.8772,1.8772,1.8816,1.8816,1.8816]},{"header":{"parameterUnit":"m.s-1","parameterCategory":1,"la1":30.2991,"la2":30.254,"lo1":-89.0895,"lo2":-89.0444,"dy":0.0017,"dx":0.0017,"nx":28,"ny":28,"refTime":"2024-04-24T03:00:00:Z","depth":0,"parameterNumber":3,"parameterNumberName":"V-component_of_WINDS"},"data":[0,0,0,0,0,0,0,0,0,0,0,0,0,0,0,0,0,0,0,0,0,0,0,0,0,0,0,0,0,0,0,0,0,0,0,0,0,0,0,0,0,0,0,0,0,0,0,0,0,0,0,0,0,0,0,0,0,0,1.7176,1.7177,0,1.7236,1.7237,1.7237,1.7215,1.7213,1.7212,1.7211,1.7269,1.7272,1.7274,0,0,0,0,0,0,0,0,0,0,0,0,0,1.704,1.7042,1.7176,1.7177,1.7178,1.7236,1.7237,1.7237,1.7215,1.7213,1.7212,1.721,1.7268,1.7271,1.7275,0,0,0,0,0,0,0,0,0,0,0,0,0,1.7099,1.7043,1.7176,1.7174,1.7174,1.7236,1.7237,1.7238,1.7215,1.7213,1.7211,1.7209,1.7267,1.7271,1.7275,1.7342,0,0,1.7288,1.729,0,0,0,0,0,0,0,0,1.7096,1.7104,1.7173,1.7174,1.7175,1.7216,1.721,1.7273,1.7216,1.72,1.7211,1.7208,1.7253,1.7258,1.7274,1.7345,1.7347,1.7288,1.7291,1.7293,1.7294,0,0,0,0,0,0,0,1.7092,1.7101,1.72,1.7174,1.7175,1.7169,1.7175,1.7222,1.7237,1.7201,1.7199,1.7207,1.7253,1.727,1.7275,1.7348,1.7288,1.7292,1.7295,1.7296,1.7476,1.7478,0,0,0,0,0,0,1.7088,1.7098,1.7198,1.7202,1.7129,1.7173,1.718,1.7205,1.7236,1.7239,1.7209,1.7206,1.7263,1.727,1.7277,1.7356,1.7293,1.7297,1.7299,1.7473,1.7476,1.7479,0,0,0,0,0,0,1.7085,1.7097,1.7196,1.715,1.7162,1.7177,1.7206,1.7207,1.7224,1.7242,1.7244,1.7223,1.7262,1.7271,1.7326,1.7358,1.7299,1.7302,1.7471,1.7474,1.7477,1.7517,0,0,0,0,0,0,1.7081,1.7096,1.7122,1.715,1.7164,1.7245,1.7208,1.721,1.7231,1.7228,1.7257,1.7259,1.7261,1.732,1.733,1.7363,1.7306,1.7468,1.7472,1.7476,1.7513,1.7521,1.7528,0,0,0,0,0,1.7076,1.7131,1.7124,1.7136,1.7198,1.7247,1.7255,1.7257,1.7234,1.726,1.7272,1.7258,1.7353,1.7326,1.7337,1.7372,1.7466,1.7471,1.7476,1.7509,1.7519,1.7528,0,0,0,0,0,0,1.7105,1.7134,1.7127,1.7192,1.7217,1.7243,1.7276,1.7267,1.7299,1.7294,1.7294,1.7301,1.7357,1.737,1.7339,1.7437,1.7406,1.7413,1.7427,1.7437,1.7445,1.744,1.7309,0,0,0,0,0,1.7119,1.7158,1.7181,1.7236,1.7249,1.726,1.7282,1.7281,1.7307,1.7317,1.7333,1.7357,1.7392,1.7415,1.7449,1.7514,1.7519,1.7543,1.7551,1.7558,1.7564,1.7599,1.761,1.7495,1.7495,1.7495,0,0,1.7148,1.7169,1.7193,1.7242,1.7262,1.73,1.7269,1.7312,1.734,1.7323,1.7376,1.7388,1.7416,1.7476,1.7503,1.7488,1.7597,1.7564,1.7569,1.7572,1.7605,1.7616,1.7626,1.7498,1.7498,1.7497,0,0,1.7221,1.7241,1.7289,1.731,1.7339,1.7347,1.7358,1.7385,1.7393,1.7446,1.7434,1.7467,1.7528,1.7548,1.7566,1.7646,1.7634,1.7656,1.7697,1.7731,1.774,1.7748,1.7776,1.7786,1.7663,1.7663,1.7663,0,1.7254,1.7313,1.7315,1.7359,1.738,1.7367,1.7415,1.7434,1.7473,1.7487,1.747,1.7546,1.7563,1.7628,1.7647,1.7662,1.7675,1.7653,1.7739,1.7747,1.7754,1.7781,1.7792,1.7665,1.7665,1.7665,1.7665,0,1.7351,1.7392,1.7427,1.7466,1.7491,1.7537,1.7544,1.757,1.7566,1.7575,1.7629,1.765,1.7687,1.7702,1.7699,1.7766,1.7755,1.7739,1.7707,1.7768,1.7793,1.7803,1.7669,1.7668,1.7667,1.7667,0,0,1.7444,1.7483,1.7496,1.7513,1.7545,1.7576,1.7621,1.7658,1.7679,1.7706,1.7743,1.7794,1.7779,1.7799,1.7798,1.7828,1.7889,1.7807,1.7808,1.7822,1.7964,1.7976,1.7988,1.7882,1.7884,1.7886,1.7961,0,1.7519,1.7598,1.7601,1.7673,1.771,1.7698,1.7737,1.776,1.7769,1.7801,1.781,1.7847,1.7824,1.7836,1.7865,1.7876,1.7918,1.787,1.7915,1.7917,1.7909,1.8001,1.8014,1.8085,1.7971,1.7973,1.7974,0,1.7618,1.7649,1.7725,1.7751,1.7767,1.7802,1.7835,1.7867,1.7892,1.7896,1.7919,1.7914,1.7958,1.7925,1.7985,1.7953,1.7971,1.7979,1.7982,1.7986,1.7949,1.8007,1.8107,1.8118,1.7989,1.7988,1.7987,0,1.7677,1.7738,1.7791,1.7807,1.7839,1.7863,1.7877,1.7901,1.7923,1.7952,1.7966,1.8,1.8018,1.8043,1.8047,1.8023,1.8107,1.8074,1.8111,1.8111,1.8129,1.8128,1.8233,1.8141,1.8141,1.8141,1.8141,0,1.7761,1.7808,1.7819,1.7851,1.7903,1.7905,1.7956,1.7968,1.7989,1.8023,1.8014,1.8046,1.8048,1.808,1.8083,1.8132,1.814,1.8144,1.8144,1.8145,1.8145,1.8157,1.8152,1.8144,1.8143,1.8143,1.8142,0,1.7836,1.7846,1.7903,1.7929,1.7936,1.7973,1.7994,1.8025,1.8033,1.8076,1.8086,1.8098,1.8136,1.8142,1.8186,1.8187,1.8246,1.8241,1.8238,1.8237,1.8273,1.8269,1.839,1.8405,1.8303,1.8304,1.8305,0,1.7889,1.7925,1.7955,1.7977,1.7993,1.803,1.8052,1.8055,1.8079,1.811,1.8137,1.8174,1.8203,1.8264,1.8276,1.8309,1.8304,1.8344,1.8309,1.8309,1.8304,1.8302,1.8305,1.8351,1.8352,1.8353,1.8354,0,1.7982,1.7984,1.8018,1.8053,1.8081,1.8108,1.8134,1.8153,1.8159,1.8185,1.8224,1.8247,1.8292,1.8329,1.8361,1.8374,1.8365,1.8365,1.8375,1.8376,1.8372,1.8374,1.8256,1.8362,1.8361,1.836,1.836,1.836,1.8047,1.8078,1.8104,1.8141,1.8161,1.8186,1.8216,1.8228,1.8261,1.8298,1.8298,1.834,1.8363,1.8407,1.8422,1.8454,1.8441,1.8456,1.846,1.8463,1.8467,1.8367,1.846,1.846,1.846,1.846,1.846,0,1.8138,1.8155,1.8189,1.8226,1.8255,1.8245,1.8273,1.8297,1.8335,1.8359,1.8388,1.8432,1.8467,1.8482,1.8516,1.8539,1.8535,1.8548,1.8546,1.8549,1.8477,1.8464,1.855,1.855,1.855,1.855,1.855,1.855,1.819,1.8242,1.8247,1.8309,1.8324,1.8367,1.8383,1.8405,1.8424,1.8474,1.8503,1.8513,1.8533,1.8568,1.8599,1.8603,1.8615,1.863,1.8631,1.8563,1.8554,1.8545,1.8534,1.8632,1.8633,1.87,1.8701,1.8701]}]]